[[{"header":{"parameterUnit":"m.s-1","parameterCategory":2,"la1":30.2991,"la2":30.254,"lo1":-89.0895,"lo2":-89.0444,"dy":0.0017,"dx":0.0017,"nx":28,"ny":28,"refTime":"2024-04-24T03:00:00:Z","depth":"0","parameterNumber":2,"parameterNumberName":"U-component_of_CURRENTS"},"data":[0,0,0,0,0,0,0,0,0,0,0,0,0,0,0,0,0,0,0,0,0,0,0,0,0,0,0,0,0,0,0,0,0,0,0,0,0,0,0,0,0,0,0,0,0,0,0,0,0,0,0,0,0,0,0,0,0,0,0.3627,0.3628,0,0.3696,0.3696,0.3697,0.3679,0.3678,0.3677,0.3677,0.3678,0.3679,0.368,0,0,0,0,0,0,0,0,0,0,0,0,0,0.3568,0.3568,0.3627,0.3629,0.363,0.3696,0.3696,0.3697,0.368,0.3678,0.3677,0.3676,0.3677,0.3679,0.368,0,0,0,0,0,0,0,0,0,0,0,0,0,0.3607,0.3568,0.3627,0.3632,0.3633,0.3696,0.3696,0.3697,0.368,0.3678,0.3677,0.3675,0.3677,0.3679,0.368,0.3719,0,0,0.3684,0.3685,0,0,0,0,0,0,0,0,0.3605,0.3609,0.363,0.3632,0.3633,0.3681,0.3676,0.3702,0.368,0.3658,0.3676,0.3675,0.3676,0.3678,0.3689,0.3719,0.3719,0.3685,0.3685,0.3686,0.3686,0,0,0,0,0,0,0,0.3602,0.3606,0.3651,0.3631,0.3634,0.366,0.3663,0.3681,0.3671,0.366,0.366,0.3674,0.3676,0.3688,0.3689,0.3719,0.3684,0.3686,0.3687,0.3687,0.3778,0.378,0,0,0,0,0,0,0.3598,0.3603,0.3649,0.3653,0.3619,0.3663,0.3665,0.3664,0.3672,0.3673,0.3675,0.3673,0.3686,0.3688,0.3689,0.3747,0.3686,0.3687,0.3688,0.3777,0.3778,0.378,0,0,0,0,0,0,0.3596,0.3601,0.3646,0.3634,0.3642,0.3665,0.3664,0.3666,0.3679,0.3685,0.3684,0.3685,0.3685,0.3687,0.3706,0.3746,0.3688,0.3689,0.3775,0.3777,0.3779,0.3856,0,0,0,0,0,0,0.3594,0.3599,0.3603,0.3633,0.3642,0.3688,0.3666,0.3669,0.3691,0.3689,0.3694,0.3692,0.3684,0.3704,0.3707,0.3747,0.369,0.3773,0.3776,0.3779,0.3851,0.386,0.3868,0,0,0,0,0,0.3591,0.3613,0.3603,0.3609,0.3644,0.369,0.3697,0.3707,0.3693,0.3709,0.3706,0.3692,0.3725,0.3706,0.371,0.3751,0.3771,0.3775,0.3778,0.3847,0.3858,0.3868,0,0,0,0,0,0,0.3598,0.3615,0.3604,0.3629,0.3656,0.3688,0.3714,0.3714,0.3727,0.3722,0.3711,0.3711,0.3747,0.3737,0.3716,0.3785,0.3747,0.3751,0.3798,0.3809,0.3817,0.3832,0.3692,0,0,0,0,0,0.3599,0.3611,0.3634,0.3655,0.3669,0.3689,0.371,0.3716,0.3733,0.3737,0.374,0.3746,0.3768,0.3774,0.379,0.3826,0.3888,0.3855,0.3863,0.387,0.3885,0.4034,0.4059,0.3791,0.3791,0.3791,0,0,0.3609,0.362,0.3628,0.3657,0.3676,0.3719,0.3697,0.3736,0.3768,0.3736,0.3776,0.3779,0.3784,0.3826,0.3841,0.382,0.398,0.3875,0.3881,0.3892,0.4041,0.4068,0.4091,0.3794,0.3793,0.3793,0,0,0.3645,0.3643,0.3665,0.3695,0.373,0.3748,0.3759,0.3792,0.3799,0.3832,0.3827,0.3851,0.387,0.3895,0.3906,0.3971,0.4024,0.3974,0.4029,0.4174,0.4198,0.422,0.4344,0.4377,0.3975,0.3975,0.3976,0,0.3655,0.3684,0.3685,0.3725,0.376,0.3762,0.381,0.383,0.3863,0.3891,0.3848,0.3928,0.3908,0.3998,0.3999,0.3993,0.4084,0.399,0.419,0.4212,0.4234,0.4355,0.439,0.398,0.3979,0.3979,0.3978,0,0.3709,0.3741,0.3767,0.3807,0.3843,0.3891,0.3918,0.3948,0.3946,0.3973,0.4045,0.4035,0.4092,0.4081,0.4045,0.4189,0.4209,0.419,0.417,0.4266,0.4387,0.4422,0.3985,0.3984,0.3983,0.3982,0,0,0.3719,0.3786,0.3799,0.3834,0.3892,0.3932,0.3988,0.4054,0.4115,0.4129,0.4227,0.4224,0.4239,0.4252,0.4242,0.4323,0.4517,0.4313,0.4318,0.4447,0.4858,0.4748,0.4776,0.4556,0.4562,0.4567,0.4887,0,0.3763,0.3841,0.387,0.3963,0.4007,0.4042,0.4103,0.4162,0.4199,0.4294,0.4313,0.439,0.4306,0.4341,0.442,0.4491,0.4612,0.4433,0.4735,0.4743,0.4645,0.4813,0.4513,0.4762,0.4921,0.4927,0.4931,0,0.3806,0.3856,0.3937,0.4038,0.4064,0.4124,0.4234,0.4291,0.4411,0.4444,0.4537,0.457,0.4683,0.4596,0.4821,0.4723,0.4807,0.4851,0.4866,0.476,0.4699,0.4689,0.482,0.4649,0.4985,0.4981,0.4977,0,0.38,0.391,0.3972,0.4008,0.4116,0.417,0.4234,0.4341,0.4419,0.4564,0.4652,0.4788,0.4881,0.5005,0.5061,0.4985,0.5322,0.5239,0.5241,0.5234,0.5032,0.4996,0.5037,0.546,0.5459,0.5458,0.5457,0,0.3831,0.389,0.3979,0.4019,0.4124,0.419,0.4322,0.4389,0.4541,0.4672,0.4744,0.4882,0.4993,0.5167,0.5201,0.5338,0.5464,0.5302,0.533,0.5046,0.5009,0.4888,0.4829,0.547,0.5468,0.5465,0.5463,0,0.3813,0.3866,0.3949,0.4069,0.4119,0.419,0.4369,0.4467,0.4595,0.4779,0.484,0.5033,0.523,0.5342,0.5562,0.5522,0.5482,0.5673,0.5312,0.5289,0.5032,0.4988,0.4966,0.4838,0.5721,0.5721,0.572,0,0.381,0.3846,0.397,0.4033,0.4094,0.4223,0.4318,0.4468,0.4586,0.486,0.4959,0.5207,0.5343,0.5613,0.5582,0.5685,0.5531,0.5488,0.5253,0.5023,0.4999,0.4815,0.4694,0.5039,0.5033,0.5028,0.5024,0,0.3822,0.3854,0.3928,0.4034,0.4139,0.4252,0.4406,0.4506,0.4698,0.4847,0.5052,0.5182,0.5392,0.533,0.5448,0.5456,0.516,0.5388,0.5264,0.4574,0.4269,0.4152,0.4824,0.498,0.4985,0.4988,0.499,0.4992,0.3838,0.3872,0.3956,0.406,0.4157,0.4245,0.4292,0.4461,0.461,0.4747,0.498,0.5034,0.5053,0.5122,0.5125,0.4852,0.4903,0.4645,0.4655,0.4524,0.4238,0.48,0.4899,0.4903,0.4906,0.4909,0.4911,0,0.3838,0.3889,0.3987,0.407,0.4109,0.4181,0.4318,0.4316,0.4407,0.4553,0.4659,0.4588,0.4512,0.4497,0.4303,0.4128,0.3928,0.401,0.3665,0.362,0.4224,0.4021,0.3791,0.3792,0.3792,0.3792,0.3792,0.3792,0.3851,0.391,0.3949,0.4,0.4033,0.4001,0.4024,0.403,0.4087,0.4018,0.393,0.396,0.4004,0.3896,0.3667,0.3579,0.3332,0.3134,0.3238,0.3613,0.367,0.3724,0.3516,0.3185,0.3185,0.2391,0.2385,0.238]},{"header":{"parameterUnit":"m.s-1","parameterCategory":2,"la1":30.2991,"la2":30.254,"lo1":-89.0895,"lo2":-89.0444,"dy":0.0017,"dx":0.0017,"nx":28,"ny":28,"refTime":"2024-04-24T03:00:00:Z","depth":"0","parameterNumber":3,"parameterNumberName":"V-component_of_CURRENTS"},"data":[0,0,0,0,0,0,0,0,0,0,0,0,0,0,0,0,0,0,0,0,0,0,0,0,0,0,0,0,0,0,0,0,0,0,0,0,0,0,0,0,0,0,0,0,0,0,0,0,0,0,0,0,0,0,0,0,0,0,0.026,0.026,0,0.0195,0.0194,0.0193,0.0138,0.0137,0.0137,0.0136,0.0044,0.0042,0.004,0,0,0,0,0,0,0,0,0,0,0,0,0,0.0288,0.0288,0.026,0.026,0.0259,0.0195,0.0194,0.0193,0.0138,0.0137,0.0137,0.0136,0.0045,0.0042,0.004,0,0,0,0,0,0,0,0,0,0,0,0,0,0.0253,0.0288,0.026,0.0225,0.0222,0.0196,0.0194,0.0193,0.0138,0.0137,0.0137,0.0136,0.0046,0.0043,0.004,0.0033,0,0,0.003,0.0029,0,0,0,0,0,0,0,0,0.0255,0.0251,0.0231,0.0228,0.0224,0.0176,0.017,0.0139,0.0138,0.0167,0.0136,0.0136,0.0088,0.0081,0.0067,0.0028,0.0024,0.003,0.0028,0.0027,0.0026,0,0,0,0,0,0,0,0.0257,0.0254,0.0232,0.0231,0.0226,0.0197,0.0191,0.0164,0.0129,0.0165,0.0161,0.0158,0.0085,0.007,0.0065,0.0023,0.003,0.0027,0.0025,0.0024,-0.0032,-0.0032,0,0,0,0,0,0,0.0273,0.0256,0.0234,0.023,0.0241,0.0197,0.0191,0.019,0.013,0.0121,0.0158,0.0155,0.0076,0.0068,0.0061,0.0068,0.0027,0.0024,0.0022,-0.0033,-0.0032,-0.0032,0,0,0,0,0,0,0.0274,0.0272,0.0237,0.0243,0.0237,0.0198,0.0197,0.0189,0.0177,0.0126,0.0116,0.0155,0.0075,0.0066,0.0043,0.0063,0.0022,0.0019,-0.0033,-0.0033,-0.0032,0.0069,0,0,0,0,0,0,0.0275,0.0273,0.0277,0.0245,0.0237,0.0231,0.0198,0.0188,0.0177,0.0172,0.012,0.0111,0.0074,0.0048,0.004,0.0058,0.0017,-0.0034,-0.0033,-0.0032,0.0065,0.0073,0.0079,0,0,0,0,0,0.0277,0.0291,0.0277,0.0274,0.0244,0.0232,0.0225,0.0193,0.0178,0.0179,0.0142,0.0112,0.0046,0.0046,0.0036,0.0054,-0.0034,-0.0033,-0.0032,0.0062,0.0071,0.0079,0,0,0,0,0,0,0.0306,0.0286,0.027,0.0278,0.0259,0.0223,0.0223,0.0202,0.0173,0.017,0.0118,0.0107,0.009,0.0057,0.0058,0.0037,0.0001,-0.0,0.0075,0.0084,0.0091,0.0122,0.0014,0,0,0,0,0,0.0315,0.032,0.0294,0.03,0.0294,0.026,0.025,0.0231,0.0203,0.019,0.0154,0.0115,0.0086,0.0074,0.0038,0.0034,0.0036,0.0036,0.0044,0.005,0.0068,0.0086,0.0098,-0.0029,-0.0029,-0.0029,0,0,0.0326,0.0318,0.0319,0.0306,0.0288,0.0297,0.0252,0.0247,0.0255,0.0185,0.0182,0.0136,0.0087,0.0077,0.0068,0.0055,0.0091,0.0051,0.0058,0.0072,0.0089,0.0102,0.0113,-0.0029,-0.0029,-0.0029,0,0,0.0362,0.0347,0.0364,0.0357,0.0342,0.0327,0.0331,0.0301,0.0286,0.0275,0.0227,0.0203,0.0153,0.0132,0.0113,0.014,0.0122,0.0118,0.019,0.0208,0.022,0.023,0.0271,0.0284,0.013,0.013,0.013,0,0.0376,0.0399,0.0367,0.0385,0.0393,0.0349,0.0376,0.0357,0.0323,0.0324,0.0287,0.0238,0.0185,0.0196,0.0192,0.016,0.0172,0.0165,0.0222,0.0231,0.024,0.028,0.0293,0.0135,0.0134,0.0134,0.0133,0,0.0425,0.0445,0.0458,0.047,0.0469,0.0488,0.0464,0.0459,0.0435,0.0417,0.041,0.0347,0.0327,0.0296,0.0246,0.0281,0.0271,0.0226,0.0209,0.026,0.0297,0.0309,0.0142,0.014,0.0139,0.0138,0,0,0.0468,0.0489,0.0498,0.0525,0.0521,0.0534,0.0547,0.0557,0.0587,0.0538,0.0583,0.0504,0.0475,0.0451,0.0395,0.0394,0.0452,0.0338,0.0337,0.0399,0.0519,0.0464,0.0472,0.0419,0.0421,0.0422,0.053,0,0.0523,0.0587,0.0578,0.0644,0.0678,0.0651,0.0676,0.0674,0.0662,0.069,0.0635,0.0647,0.0536,0.054,0.052,0.0465,0.0484,0.0429,0.0444,0.0446,0.0406,0.0483,0.0449,0.0537,0.0541,0.0543,0.0545,0,0.0584,0.0623,0.0698,0.075,0.0763,0.0794,0.0842,0.0857,0.0868,0.0861,0.0858,0.082,0.0814,0.0715,0.0681,0.0652,0.06,0.0553,0.0556,0.0479,0.0412,0.048,0.0558,0.036,0.0563,0.0561,0.056,0,0.0652,0.0713,0.0785,0.0801,0.0844,0.0877,0.09,0.0915,0.0951,0.099,0.1034,0.1003,0.1027,0.0941,0.0827,0.0766,0.0803,0.0711,0.0629,0.0626,0.0587,0.0575,0.0489,0.0716,0.0716,0.0716,0.0715,0,0.0726,0.0784,0.0828,0.087,0.096,0.0959,0.1052,0.1061,0.1112,0.1199,0.1139,0.1223,0.1083,0.1072,0.0929,0.0835,0.0894,0.0673,0.0655,0.062,0.0611,0.0423,0.0314,0.072,0.0719,0.0718,0.0717,0,0.0788,0.0817,0.0901,0.0967,0.0996,0.106,0.1143,0.1207,0.1245,0.1367,0.1397,0.1421,0.1417,0.1276,0.1182,0.0997,0.078,0.0846,0.0823,0.0798,0.0466,0.0365,0.0286,0.0209,0.0761,0.0761,0.076,0,0.0826,0.0878,0.0972,0.1025,0.1061,0.1152,0.1217,0.1269,0.1349,0.1501,0.1581,0.1636,0.1711,0.1552,0.1259,0.1051,0.084,0.0829,0.0675,0.0471,0.0347,0.0266,0.0201,0.0685,0.0684,0.0683,0.0682,0,0.0897,0.0927,0.0992,0.1095,0.1181,0.1288,0.1393,0.1481,0.1579,0.1718,0.1917,0.201,0.1872,0.1656,0.1327,0.1138,0.066,0.0799,0.0602,0.0296,0.0195,0.0105,0.0604,0.0674,0.0675,0.0675,0.0676,0.0676,0.0944,0.0992,0.1069,0.1172,0.1276,0.1422,0.1533,0.1679,0.187,0.2113,0.2171,0.2365,0.197,0.1532,0.1238,0.0616,0.0637,0.038,0.029,0.0239,0.0103,0.0586,0.0606,0.0606,0.0607,0.0607,0.0607,0,0.0986,0.1041,0.1137,0.1269,0.1398,0.1447,0.1649,0.1796,0.2065,0.2313,0.2519,0.2438,0.1956,0.1424,0.058,0.0158,0.0021,-0.0063,-0.0194,-0.0224,0.0225,0.0152,0.0058,0.0058,0.0058,0.0058,0.0058,0.0059,0.1008,0.1094,0.1142,0.1354,0.146,0.166,0.1794,0.2044,0.226,0.2583,0.2717,0.2773,0.2303,0.0857,-0.0121,-0.0325,-0.0583,-0.0645,-0.0746,-0.048,-0.0447,-0.0415,-0.0511,-0.0742,-0.0743,-0.1168,-0.1172,-0.1176]}],[{"header":{"parameterUnit":"m.s-1","parameterCategory":2,"la1":30.2991,"la2":30.254,"lo1":-89.0895,"lo2":-89.0444,"dy":0.0017,"dx":0.0017,"nx":28,"ny":28,"refTime":"2024-04-24T03:00:00:Z","depth":"2","parameterNumber":2,"parameterNumberName":"U-component_of_CURRENTS"},"data":[0,0,0,0,0,0,0,0,0,0,0,0,0,0,0,0,0,0,0,0,0,0,0,0,0,0,0,0,0,0,0,0,0,0,0,0,0,0,0,0,0,0,0,0,0,0,0,0,0,0,0,0,0,0,0,0,0,0,0.2786,0.2786,0,0.2822,0.2823,0.2823,0.2848,0.2848,0.2848,0.2848,0.2832,0.2831,0.2831,0,0,0,0,0,0,0,0,0,0,0,0,0,0.2761,0.2762,0.2786,0.2786,0.2787,0.2822,0.2823,0.2823,0.2848,0.2848,0.2848,0.2848,0.2832,0.2831,0.2831,0,0,0,0,0,0,0,0,0,0,0,0,0,0.2783,0.2762,0.2786,0.2803,0.2804,0.2822,0.2823,0.2824,0.2848,0.2848,0.2848,0.2848,0.2832,0.2831,0.2831,0.2824,0,0,0.2828,0.2828,0,0,0,0,0,0,0,0,0.2782,0.2784,0.28,0.2801,0.2803,0.283,0.2808,0.2821,0.2848,0.2833,0.2848,0.2848,0.2825,0.2825,0.2834,0.2823,0.2822,0.2828,0.2828,0.2827,0.2827,0,0,0,0,0,0,0,0.278,0.2783,0.2802,0.28,0.2802,0.2816,0.2819,0.2811,0.2828,0.2834,0.2836,0.2838,0.2826,0.2835,0.2834,0.2822,0.2828,0.2828,0.2827,0.2827,0.2901,0.2903,0,0,0,0,0,0,0.2772,0.2781,0.28,0.2802,0.2792,0.2816,0.282,0.2822,0.2829,0.283,0.2838,0.2839,0.2836,0.2835,0.2833,0.2886,0.2828,0.2827,0.2826,0.2898,0.2901,0.2904,0,0,0,0,0,0,0.2772,0.2774,0.2799,0.2792,0.2796,0.2816,0.2819,0.2823,0.2837,0.2832,0.2833,0.2848,0.2836,0.2834,0.2846,0.2883,0.2826,0.2826,0.2896,0.2899,0.2903,0.2952,0,0,0,0,0,0,0.2771,0.2773,0.2781,0.2791,0.2796,0.2814,0.2819,0.2823,0.2837,0.2839,0.2841,0.284,0.2836,0.2848,0.2846,0.2881,0.2825,0.2892,0.2897,0.2902,0.2947,0.2957,0.2965,0,0,0,0,0,0.277,0.2777,0.2781,0.2784,0.2803,0.2814,0.2818,0.2833,0.2838,0.2846,0.2858,0.284,0.2876,0.2848,0.2845,0.2881,0.289,0.2896,0.2901,0.2943,0.2955,0.2965,0,0,0,0,0,0,0.2765,0.278,0.2785,0.2795,0.2805,0.2818,0.2833,0.2836,0.2852,0.2864,0.2852,0.2852,0.2886,0.2877,0.2846,0.2922,0.2888,0.2893,0.2921,0.2932,0.294,0.2969,0.2824,0,0,0,0,0,0.2768,0.2781,0.279,0.2799,0.2808,0.2821,0.283,0.2843,0.2854,0.2863,0.287,0.2888,0.2907,0.2911,0.2928,0.2948,0.2987,0.2978,0.2987,0.2995,0.3021,0.3116,0.3136,0.2922,0.2922,0.2922,0,0,0.2771,0.2778,0.2788,0.28,0.2815,0.2838,0.2828,0.2852,0.2874,0.2857,0.2899,0.2915,0.2921,0.2962,0.2977,0.2955,0.3077,0.3002,0.3007,0.303,0.3124,0.3145,0.3164,0.2926,0.2925,0.2924,0,0,0.2781,0.279,0.2808,0.2824,0.2848,0.2858,0.2863,0.2889,0.2906,0.2932,0.2949,0.2991,0.2996,0.3034,0.3043,0.311,0.3124,0.3114,0.3173,0.3265,0.3283,0.33,0.3375,0.3398,0.3113,0.3113,0.3113,0,0.2789,0.2802,0.2814,0.2839,0.2861,0.2866,0.2896,0.2912,0.2942,0.2976,0.2953,0.3042,0.3039,0.3113,0.3144,0.313,0.3181,0.3122,0.3276,0.3294,0.331,0.3383,0.3408,0.3116,0.3116,0.3116,0.3115,0,0.2812,0.2831,0.2844,0.288,0.2908,0.293,0.2958,0.2997,0.3012,0.3038,0.3115,0.3129,0.3193,0.3195,0.318,0.3303,0.3302,0.3278,0.3245,0.3335,0.3406,0.3431,0.3121,0.312,0.3119,0.3118,0,0,0.2808,0.2851,0.2859,0.2884,0.2933,0.2956,0.3016,0.3072,0.3122,0.316,0.3238,0.3281,0.3316,0.3334,0.334,0.3405,0.355,0.3394,0.3397,0.3462,0.376,0.3604,0.3616,0.3555,0.3559,0.3563,0.3762,0,0.282,0.2863,0.2892,0.2946,0.2971,0.3024,0.3076,0.3143,0.3182,0.3261,0.3311,0.3379,0.3356,0.3398,0.347,0.3546,0.3619,0.3499,0.367,0.3676,0.3521,0.3641,0.3331,0.3469,0.3786,0.379,0.3793,0,0.2828,0.2857,0.2907,0.2981,0.3003,0.3044,0.3153,0.3202,0.3316,0.3361,0.346,0.3496,0.3634,0.3571,0.3774,0.3704,0.3749,0.3781,0.3789,0.3647,0.3566,0.3433,0.3502,0.3835,0.3831,0.3828,0.3826,0,0.2802,0.2867,0.2903,0.2929,0.3017,0.307,0.3127,0.3239,0.3311,0.3441,0.3521,0.3657,0.3744,0.3851,0.3919,0.388,0.4106,0.406,0.396,0.395,0.3722,0.3681,0.4195,0.4194,0.4194,0.4193,0.4193,0,0.2787,0.2827,0.2892,0.2913,0.2985,0.3062,0.315,0.3236,0.3376,0.3465,0.3578,0.3667,0.382,0.3943,0.3996,0.4064,0.4186,0.401,0.4005,0.3727,0.3687,0.4022,0.3999,0.4201,0.4199,0.4198,0.4196,0,0.2759,0.2796,0.2846,0.2934,0.2966,0.3025,0.3162,0.3213,0.3373,0.3501,0.3562,0.3749,0.3912,0.4027,0.4194,0.4148,0.4226,0.4198,0.3848,0.3795,0.3996,0.3974,0.4163,0.4159,0.4157,0.4154,0.4152,0,0.2752,0.2754,0.2845,0.2864,0.2903,0.2989,0.3028,0.3191,0.325,0.3518,0.3566,0.3786,0.386,0.4059,0.4052,0.4134,0.4205,0.3836,0.3688,0.4025,0.4002,0.3984,0.3966,0.3424,0.3416,0.341,0.3405,0,0.2715,0.2739,0.278,0.2807,0.2841,0.2905,0.2982,0.3046,0.3226,0.335,0.3516,0.3616,0.3784,0.3704,0.377,0.3762,0.3803,0.3703,0.4203,0.3446,0.3335,0.3308,0.3315,0.3347,0.3353,0.3357,0.336,0.3363,0.2686,0.2688,0.2702,0.2738,0.2768,0.2799,0.2812,0.2883,0.2985,0.3118,0.3311,0.3355,0.3413,0.3367,0.3292,0.325,0.351,0.3347,0.3366,0.3392,0.3236,0.3122,0.3067,0.3071,0.3075,0.3078,0.308,0,0.26,0.2603,0.2616,0.2635,0.2619,0.2702,0.2747,0.2692,0.271,0.2858,0.2958,0.278,0.2737,0.2831,0.2671,0.2656,0.262,0.2551,0.2485,0.2545,0.2598,0.2399,0.2011,0.2007,0.2003,0.2,0,0,0.2552,0.2516,0.2517,0.247,0.2497,0.243,0.2443,0.2376,0.2401,0.2365,0.2395,0.2616,0.2735,0.2336,0.2288,0.212,0.2307,0.2035,0.2902,0.2885,0.2932,0.3077,0.2841,0,0,0,0,0]},{"header":{"parameterUnit":"m.s-1","parameterCategory":2,"la1":30.2991,"la2":30.254,"lo1":-89.0895,"lo2":-89.0444,"dy":0.0017,"dx":0.0017,"nx":28,"ny":28,"refTime":"2024-04-24T03:00:00:Z","depth":"2","parameterNumber":3,"parameterNumberName":"V-component_of_CURRENTS"},"data":[0,0,0,0,0,0,0,0,0,0,0,0,0,0,0,0,0,0,0,0,0,0,0,0,0,0,0,0,0,0,0,0,0,0,0,0,0,0,0,0,0,0,0,0,0,0,0,0,0,0,0,0,0,0,0,0,0,0,0.0142,0.0141,0,0.0083,0.0082,0.0081,0.0044,0.0044,0.0043,0.0043,-0.0027,-0.0029,-0.0031,0,0,0,0,0,0,0,0,0,0,0,0,0,0.0169,0.0169,0.0142,0.0141,0.014,0.0083,0.0082,0.0081,0.0044,0.0044,0.0043,0.0043,-0.0027,-0.0029,-0.0031,0,0,0,0,0,0,0,0,0,0,0,0,0,0.0138,0.0169,0.0142,0.0115,0.0112,0.0083,0.0082,0.0081,0.0044,0.0044,0.0043,0.0043,-0.0026,-0.0029,-0.0031,-0.0042,0,0,-0.0039,-0.004,0,0,0,0,0,0,0,0,0.014,0.0137,0.012,0.0117,0.0114,0.0071,0.0065,0.0039,0.0044,0.0069,0.0043,0.0043,0.0005,-0.0,-0.0011,-0.0045,-0.0048,-0.0039,-0.0041,-0.0042,-0.0043,0,0,0,0,0,0,0,0.0142,0.0139,0.0118,0.0119,0.0115,0.0088,0.0084,0.006,0.0039,0.0067,0.0064,0.0059,0.0003,-0.0009,-0.0013,-0.0049,-0.0039,-0.0042,-0.0043,-0.0044,-0.0096,-0.0095,0,0,0,0,0,0,0.0153,0.0141,0.012,0.0116,0.0127,0.0088,0.0083,0.0084,0.0039,0.0032,0.0059,0.0057,-0.0004,-0.001,-0.0016,-0.0015,-0.0042,-0.0044,-0.0046,-0.0096,-0.0096,-0.0095,0,0,0,0,0,0,0.0154,0.0152,0.0122,0.0127,0.0121,0.0088,0.009,0.0083,0.0076,0.0033,0.0026,0.0058,-0.0005,-0.0012,-0.0029,-0.0019,-0.0046,-0.0048,-0.0096,-0.0096,-0.0095,-0.0024,0,0,0,0,0,0,0.0155,0.0153,0.0157,0.0128,0.0122,0.0115,0.009,0.0082,0.0072,0.007,0.003,0.0023,-0.0005,-0.0025,-0.0032,-0.0023,-0.005,-0.0096,-0.0096,-0.0096,-0.0027,-0.0022,-0.0017,0,0,0,0,0,0.0157,0.0167,0.0158,0.0155,0.0129,0.0115,0.011,0.0084,0.0073,0.0075,0.0048,0.0024,-0.0028,-0.0027,-0.0035,-0.0026,-0.0096,-0.0096,-0.0096,-0.0029,-0.0023,-0.0017,0,0,0,0,0,0,0.0179,0.0164,0.0152,0.0157,0.0141,0.0109,0.0107,0.0091,0.0071,0.0068,0.0029,0.002,0.0006,-0.002,-0.0018,-0.0042,-0.0067,-0.0068,-0.0014,-0.0008,-0.0003,0.002,-0.0052,0,0,0,0,0,0.0187,0.0192,0.017,0.0173,0.0169,0.014,0.013,0.0116,0.0093,0.0084,0.0056,0.0025,0.0001,-0.001,-0.0038,-0.0047,-0.0067,-0.0049,-0.0044,-0.0039,-0.0027,-0.0047,-0.0042,-0.0094,-0.0094,-0.0094,0,0,0.0194,0.0188,0.0189,0.0178,0.0163,0.0168,0.0134,0.0128,0.0131,0.008,0.0075,0.0041,0.0001,-0.0011,-0.0019,-0.003,-0.0036,-0.0039,-0.0035,-0.0024,-0.0046,-0.0041,-0.0036,-0.0094,-0.0094,-0.0094,0,0,0.0218,0.021,0.0223,0.0217,0.0203,0.0189,0.0193,0.0167,0.0156,0.0145,0.0109,0.0086,0.0048,0.0024,0.0007,0.0022,-0.0011,0.0009,0.0056,0.0036,0.0041,0.0045,0.0028,0.003,0.0014,0.0014,0.0014,0,0.0227,0.0244,0.0224,0.0237,0.0239,0.0206,0.0224,0.0208,0.018,0.0177,0.0154,0.0103,0.0066,0.0057,0.0059,0.0035,0.002,0.004,0.0045,0.0048,0.0051,0.0033,0.0034,0.0017,0.0017,0.0017,0.0016,0,0.0263,0.0275,0.0284,0.0293,0.0293,0.0303,0.0284,0.0279,0.026,0.0242,0.0225,0.0174,0.0148,0.0127,0.0097,0.0098,0.008,0.0053,0.0036,0.0061,0.0039,0.0039,0.0022,0.0021,0.002,0.0019,0,0,0.0292,0.0307,0.0311,0.0332,0.0327,0.0337,0.0342,0.0343,0.036,0.0316,0.033,0.0273,0.0246,0.0224,0.0181,0.0159,0.0157,0.0121,0.0119,0.0116,0.012,0.0074,0.0069,0.0134,0.0134,0.0134,0.0099,0,0.0328,0.0372,0.0367,0.0412,0.0436,0.0416,0.0432,0.0426,0.041,0.0414,0.0356,0.0352,0.0283,0.028,0.0245,0.0189,0.016,0.0169,0.0087,0.0085,0.005,0.0069,0.0099,0.0067,0.0099,0.0099,0.0099,0,0.037,0.0397,0.045,0.0487,0.0497,0.052,0.0551,0.056,0.0547,0.0535,0.0508,0.0465,0.0433,0.0368,0.0283,0.0295,0.0214,0.0157,0.0154,0.0089,0.0039,0.0045,0.0065,0.0098,0.0098,0.0098,0.0098,0,0.0418,0.0458,0.0509,0.0521,0.0554,0.058,0.0599,0.0602,0.0634,0.0622,0.065,0.0578,0.0573,0.0464,0.0336,0.0318,0.0236,0.0194,0.0072,0.0068,0.0065,0.006,0.0122,0.0122,0.0122,0.0122,0.0123,0,0.0466,0.0506,0.0541,0.0573,0.0648,0.0645,0.072,0.0722,0.0749,0.0819,0.0729,0.0767,0.0599,0.0526,0.0383,0.0236,0.027,0.0089,0.0058,0.0089,0.0087,0.0088,0.0085,0.0121,0.0121,0.0122,0.0122,0,0.0511,0.053,0.0597,0.0649,0.0677,0.0734,0.0816,0.0869,0.0884,0.0974,0.0985,0.0926,0.0839,0.0651,0.0482,0.0318,0.0167,0.0095,0.0141,0.0115,-0.0001,-0.0001,-0.003,-0.0032,-0.0034,-0.0035,-0.0036,0,0.0538,0.0577,0.0665,0.0721,0.0752,0.0835,0.0902,0.0938,0.1015,0.1087,0.1152,0.1082,0.1051,0.0766,0.0479,0.0215,0.0171,0.004,-0.0006,0.0012,-0.0016,-0.0013,-0.001,0.0024,0.0023,0.0023,0.0023,0,0.0592,0.0624,0.0684,0.0801,0.0887,0.0999,0.1104,0.1197,0.1269,0.1337,0.1432,0.1406,0.1129,0.0859,0.0458,0.0273,0.0081,0.002,0.0045,0.0048,0.0057,0.0032,0.0034,0.0019,0.0019,0.0019,0.002,0.002,0.0639,0.069,0.0775,0.089,0.0999,0.1173,0.1283,0.1408,0.1556,0.1674,0.1634,0.1581,0.1247,0.0742,0.0412,0.0057,0.007,-0.0068,-0.0064,-0.006,-0.0057,-0.0053,-0.011,-0.011,-0.0111,-0.0111,-0.0111,0,0.0691,0.0753,0.0858,0.1008,0.1144,0.1203,0.1419,0.1523,0.1712,0.1787,0.1823,0.1501,0.1179,0.0804,0.0281,-0.0045,-0.0061,-0.015,-0.0091,-0.0085,-0.008,-0.0077,-0.0136,-0.0137,-0.0138,-0.0138,0,0,0.0723,0.0823,0.0878,0.1107,0.1223,0.1423,0.1564,0.1713,0.1805,0.1872,0.1827,0.1727,0.1277,0.0893,0.0466,0.017,0.0114,0.0105,0.0159,0.0287,0.0295,0.0001,0.0016,0,0,0,0,0]}],[{"header":{"parameterUnit":"m.s-1","parameterCategory":2,"la1":30.2991,"la2":30.254,"lo1":-89.0895,"lo2":-89.0444,"dy":0.0017,"dx":0.0017,"nx":28,"ny":28,"refTime":"2024-04-24T03:00:00:Z","depth":"4","parameterNumber":2,"parameterNumberName":"U-component_of_CURRENTS"},"data":[0,0,0,0,0,0,0,0,0,0,0,0,0,0,0,0,0,0,0,0,0,0,0,0,0,0,0,0,0,0,0,0,0,0,0,0,0,0,0,0,0,0,0,0,0,0,0,0,0,0,0,0,0,0,0,0,0,0,0.1723,0.1724,0,0.1762,0.1762,0.1762,0.1805,0.1806,0.1807,0.1808,0.1857,0.1858,0.1859,0,0,0,0,0,0,0,0,0,0,0,0,0,0.1667,0.1668,0.1723,0.1724,0.1725,0.1762,0.1762,0.1762,0.1805,0.1806,0.1807,0.1808,0.1857,0.1858,0.1859,0,0,0,0,0,0,0,0,0,0,0,0,0,0.1695,0.1668,0.1723,0.1752,0.1755,0.1762,0.1762,0.1762,0.1805,0.1806,0.1807,0.1808,0.1857,0.1858,0.1859,0.1839,0,0,0.1861,0.1862,0,0,0,0,0,0,0,0,0.1694,0.1697,0.1747,0.175,0.1754,0.1782,0.1761,0.1789,0.1804,0.1784,0.1808,0.1809,0.1834,0.1836,0.1838,0.1841,0.1844,0.1861,0.1862,0.1862,0.1862,0,0,0,0,0,0,0,0.1692,0.1695,0.1736,0.1748,0.1752,0.1756,0.1762,0.1766,0.18,0.1786,0.1789,0.1797,0.1835,0.1837,0.1839,0.1844,0.1861,0.1862,0.1863,0.1863,0.1945,0.1946,0,0,0,0,0,0,0.1691,0.1694,0.1735,0.1738,0.1728,0.1757,0.1762,0.177,0.18,0.1806,0.1795,0.1798,0.1835,0.1838,0.1841,0.1918,0.1862,0.1863,0.1863,0.1943,0.1945,0.1947,0,0,0,0,0,0,0.1689,0.1694,0.1734,0.1718,0.1724,0.1757,0.1764,0.177,0.1812,0.1807,0.1814,0.1837,0.1836,0.184,0.1887,0.1917,0.1863,0.1864,0.1941,0.1944,0.1946,0.2009,0,0,0,0,0,0,0.1688,0.1693,0.1716,0.1718,0.1725,0.1763,0.1764,0.177,0.1813,0.1818,0.1844,0.1848,0.1837,0.1886,0.1888,0.1917,0.1865,0.1939,0.1942,0.1945,0.2005,0.2014,0.2021,0,0,0,0,0,0.1685,0.1702,0.1717,0.1723,0.1749,0.1764,0.1768,0.1793,0.1814,0.1836,0.1863,0.1849,0.1907,0.1888,0.189,0.192,0.1937,0.1941,0.1945,0.2002,0.2012,0.2021,0,0,0,0,0,0,0.1689,0.1708,0.1724,0.1747,0.1769,0.1773,0.1799,0.1816,0.1853,0.1872,0.1871,0.1876,0.193,0.1918,0.1897,0.1954,0.192,0.1924,0.1962,0.1972,0.198,0.1992,0.1865,0,0,0,0,0,0.17,0.1722,0.1737,0.1762,0.1776,0.1797,0.1815,0.1833,0.1856,0.1876,0.1894,0.1916,0.1938,0.1952,0.1968,0.1995,0.2004,0.2016,0.2024,0.2031,0.2043,0.2091,0.2105,0.1959,0.1959,0.1959,0,0,0.1705,0.1724,0.1736,0.1766,0.1787,0.1807,0.1812,0.1849,0.1877,0.1873,0.1932,0.1951,0.1956,0.1994,0.2015,0.1991,0.2078,0.2036,0.2041,0.205,0.2097,0.2111,0.2123,0.1962,0.1961,0.1961,0,0,0.1716,0.175,0.1768,0.1791,0.1831,0.1842,0.1864,0.1892,0.1923,0.197,0.1982,0.2025,0.2052,0.2062,0.2068,0.2129,0.2125,0.2137,0.2179,0.2226,0.2238,0.2249,0.228,0.2293,0.2132,0.2132,0.2132,0,0.1728,0.1753,0.1777,0.1802,0.1826,0.1863,0.1887,0.1917,0.1962,0.1993,0.2002,0.2078,0.2081,0.2129,0.2152,0.2147,0.2173,0.214,0.2236,0.2247,0.2258,0.2287,0.23,0.2136,0.2135,0.2135,0.2134,0,0.174,0.1776,0.1792,0.1835,0.1863,0.1895,0.1932,0.1977,0.2023,0.2053,0.2133,0.2152,0.2199,0.2203,0.2197,0.2271,0.2267,0.2247,0.2211,0.2276,0.2302,0.2316,0.2141,0.2139,0.2138,0.2137,0,0,0.1721,0.1787,0.1797,0.1822,0.1888,0.1901,0.1965,0.2021,0.2071,0.2133,0.2197,0.2249,0.2287,0.2298,0.2305,0.2337,0.2426,0.2331,0.2331,0.236,0.2536,0.2368,0.2366,0.2434,0.2437,0.2439,0.2525,0,0.1729,0.177,0.1808,0.1855,0.1877,0.1936,0.1984,0.2046,0.2113,0.2184,0.2239,0.2309,0.2315,0.2352,0.2395,0.2426,0.2465,0.2404,0.247,0.2472,0.2314,0.2377,0.2447,0.2535,0.2538,0.254,0.2542,0,0.1721,0.1753,0.1798,0.1862,0.1879,0.1921,0.201,0.2059,0.2169,0.2224,0.232,0.2377,0.2468,0.2448,0.256,0.2531,0.255,0.2558,0.2561,0.2391,0.2328,0.2457,0.2565,0.2563,0.2562,0.256,0.2559,0,0.1672,0.1742,0.1779,0.1802,0.1881,0.1927,0.1981,0.2083,0.2139,0.2271,0.2336,0.2452,0.2529,0.2586,0.2641,0.2619,0.2737,0.2699,0.2565,0.2553,0.265,0.2637,0.277,0.277,0.277,0.2769,0.2769,0,0.1645,0.1676,0.1767,0.1784,0.1834,0.1905,0.1982,0.2052,0.2171,0.2234,0.237,0.2436,0.2575,0.266,0.2679,0.2671,0.2782,0.2587,0.2568,0.2674,0.2663,0.2659,0.2645,0.2772,0.2772,0.2771,0.2771,0,0.1574,0.1639,0.1679,0.1775,0.1812,0.1847,0.1972,0.2004,0.2154,0.2244,0.2297,0.247,0.2575,0.2677,0.2769,0.2706,0.271,0.2674,0.2796,0.278,0.2485,0.2474,0.2529,0.2523,0.2519,0.2515,0.2512,0,0.1531,0.1551,0.1656,0.1673,0.1724,0.18,0.1828,0.1974,0.2021,0.2232,0.2251,0.243,0.2522,0.2542,0.2642,0.2678,0.2642,0.2631,0.254,0.2486,0.2464,0.2459,0.2454,0.2506,0.2504,0.2503,0.2502,0,0.1446,0.1506,0.1541,0.1582,0.1619,0.1651,0.1732,0.1757,0.1913,0.2079,0.2174,0.2249,0.2358,0.244,0.2497,0.2505,0.2629,0.2585,0.2592,0.2507,0.2459,0.244,0.2439,0.2487,0.2489,0.2491,0.2492,0,0.1385,0.1383,0.1439,0.146,0.1503,0.1487,0.1544,0.1608,0.1689,0.1938,0.1962,0.215,0.2329,0.235,0.2391,0.2404,0.2358,0.2273,0.2297,0.2314,0.2202,0.2106,0.2021,0,0,0,0,0,0.1309,0.1291,0.13,0.1309,0.1348,0.1384,0.1461,0.1523,0.1696,0.1709,0.1844,0.1937,0.2033,0.2133,0.2103,0.2263,0.2342,0.2214,0.225,0.2404,0.2421,0.2307,0,0,0,0,0,0,0.1252,0.1264,0.1257,0.1191,0.118,0.1197,0.1244,0.1347,0.1385,0.1588,0.1658,0.183,0.1954,0.2052,0.2079,0.2105,0.2085,0.2342,0.2337,0.2394,0.241,0.2424,0.2312,0,0,0,0,0]},{"header":{"parameterUnit":"m.s-1","parameterCategory":2,"la1":30.2991,"la2":30.254,"lo1":-89.0895,"lo2":-89.0444,"dy":0.0017,"dx":0.0017,"nx":28,"ny":28,"refTime":"2024-04-24T03:00:00:Z","depth":"4","parameterNumber":3,"parameterNumberName":"V-component_of_CURRENTS"},"data":[0,0,0,0,0,0,0,0,0,0,0,0,0,0,0,0,0,0,0,0,0,0,0,0,0,0,0,0,0,0,0,0,0,0,0,0,0,0,0,0,0,0,0,0,0,0,0,0,0,0,0,0,0,0,0,0,0,0,0.0121,0.012,0,0.0087,0.0086,0.0086,0.0067,0.0067,0.0067,0.0067,0.0023,0.0022,0.002,0,0,0,0,0,0,0,0,0,0,0,0,0,0.0134,0.0134,0.0121,0.012,0.012,0.0087,0.0086,0.0086,0.0067,0.0067,0.0067,0.0067,0.0023,0.0022,0.002,0,0,0,0,0,0,0,0,0,0,0,0,0,0.0117,0.0134,0.0121,0.0106,0.0105,0.0087,0.0086,0.0086,0.0067,0.0067,0.0067,0.0067,0.0023,0.0022,0.002,0.0012,0,0,0.0015,0.0014,0,0,0,0,0,0,0,0,0.0118,0.0117,0.0109,0.0107,0.0105,0.0081,0.0075,0.006,0.0067,0.0081,0.0067,0.0067,0.0041,0.0038,0.0032,0.001,0.0008,0.0015,0.0014,0.0013,0.0013,0,0,0,0,0,0,0,0.0119,0.0118,0.0107,0.0108,0.0106,0.0089,0.0087,0.0072,0.0062,0.008,0.0079,0.0075,0.004,0.0034,0.0031,0.0007,0.0015,0.0014,0.0013,0.0012,-0.002,-0.002,0,0,0,0,0,0,0.0125,0.0119,0.0108,0.0106,0.0111,0.0089,0.0087,0.0089,0.0062,0.0058,0.0075,0.0074,0.0037,0.0033,0.0029,0.003,0.0013,0.0012,0.0011,-0.002,-0.002,-0.002,0,0,0,0,0,0,0.0126,0.0125,0.011,0.0111,0.0108,0.0089,0.0092,0.0088,0.0085,0.0058,0.0054,0.0076,0.0036,0.0032,0.0021,0.0028,0.0011,0.0009,-0.002,-0.002,-0.002,0.0025,0,0,0,0,0,0,0.0126,0.0125,0.013,0.0112,0.0108,0.0106,0.0092,0.0088,0.0083,0.0081,0.0058,0.0053,0.0036,0.0023,0.0019,0.0026,0.0008,-0.002,-0.002,-0.002,0.0023,0.0026,0.0029,0,0,0,0,0,0.0127,0.0135,0.013,0.0129,0.0115,0.0107,0.0103,0.0089,0.0083,0.0086,0.0069,0.0054,0.0022,0.0022,0.0017,0.0023,-0.0021,-0.002,-0.002,0.0022,0.0026,0.0029,0,0,0,0,0,0,0.0142,0.0134,0.0128,0.0133,0.0123,0.0103,0.0104,0.0094,0.0082,0.0082,0.0057,0.0051,0.0044,0.0027,0.0028,0.0014,-0.0002,-0.0003,0.0031,0.0035,0.0038,0.0052,0.0007,0,0,0,0,0,0.0148,0.0153,0.0139,0.0143,0.0141,0.0123,0.0118,0.011,0.0096,0.0092,0.0074,0.0055,0.004,0.0033,0.0016,0.0011,-0.0017,0.001,0.0013,0.0016,0.0023,-0.0013,-0.0013,-0.0019,-0.0019,-0.0019,0,0,0.0153,0.015,0.0152,0.0147,0.0138,0.0143,0.0121,0.0119,0.0122,0.0088,0.0088,0.0066,0.0041,0.0034,0.0029,0.0022,0.0002,0.0017,0.0019,0.0025,-0.0013,-0.0012,-0.0012,-0.0018,-0.0018,-0.0018,0,0,0.0169,0.0166,0.0176,0.0173,0.0166,0.0158,0.0161,0.0146,0.0139,0.0134,0.011,0.0094,0.0073,0.0055,0.0044,0.0053,0.0019,0.0048,0.0077,0.0041,0.0041,0.0041,0.0003,-0.0001,0.0051,0.0051,0.0051,0,0.0175,0.0189,0.0177,0.0187,0.0191,0.017,0.0184,0.0174,0.0157,0.0155,0.0141,0.0107,0.0083,0.0073,0.0076,0.0061,0.0034,0.0066,0.0046,0.0045,0.0044,0.0004,-0.0001,0.0053,0.0053,0.0053,0.0052,0,0.0199,0.021,0.0217,0.0227,0.0228,0.0237,0.0225,0.0223,0.0212,0.0201,0.0188,0.0151,0.0133,0.0119,0.0102,0.0088,0.0068,0.0053,0.0038,0.0047,0.0005,-0.0001,0.0056,0.0056,0.0055,0.0054,0,0,0.0214,0.0232,0.0235,0.0253,0.0253,0.0262,0.0265,0.0267,0.0279,0.0248,0.0253,0.0216,0.0195,0.0181,0.015,0.0118,0.0083,0.0089,0.0086,0.0054,0.0001,-0.0005,-0.0013,0.0065,0.0064,0.0064,-0.0028,0,0.0238,0.0272,0.0272,0.0308,0.0327,0.0316,0.0329,0.0326,0.0315,0.0313,0.0267,0.0262,0.0219,0.0215,0.0174,0.011,0.0071,0.0109,-0.0006,-0.001,-0.0013,-0.0018,0.0062,-0.0032,-0.0034,-0.0035,-0.0036,0,0.0264,0.0286,0.0327,0.0362,0.037,0.0392,0.0415,0.0423,0.0408,0.0398,0.0373,0.0337,0.029,0.0252,0.0139,0.0166,0.0091,0.0032,0.0027,0.0004,-0.0026,-0.0044,-0.0047,-0.0046,-0.0045,-0.0044,-0.0044,0,0.0291,0.0327,0.0367,0.0378,0.041,0.0432,0.0452,0.0454,0.0481,0.0458,0.047,0.0395,0.0375,0.0265,0.0142,0.0142,0.0011,-0.0008,-0.009,-0.0092,-0.0079,-0.0078,-0.0092,-0.0092,-0.0092,-0.0092,-0.0091,0,0.0318,0.035,0.039,0.0414,0.0479,0.0481,0.0545,0.0545,0.0563,0.0603,0.0527,0.0528,0.0379,0.0286,0.0159,0.0017,0.0018,-0.0086,-0.0115,-0.0059,-0.0055,-0.0084,-0.0081,-0.0095,-0.0094,-0.0094,-0.0093,0,0.0339,0.036,0.0417,0.0468,0.0497,0.0546,0.0627,0.0664,0.067,0.0716,0.0715,0.0634,0.0506,0.0342,0.0161,0.0056,-0.0091,-0.0144,-0.0073,-0.0096,-0.0177,-0.0171,-0.0242,-0.0243,-0.0244,-0.0245,-0.0245,0,0.0351,0.0382,0.0467,0.0517,0.055,0.0628,0.0684,0.072,0.0768,0.078,0.0804,0.0699,0.0619,0.0364,0.0175,-0.0079,-0.0114,-0.0193,-0.0186,-0.017,-0.0191,-0.0185,-0.0178,-0.0247,-0.0247,-0.0247,-0.0247,0,0.0379,0.0413,0.0465,0.0569,0.0645,0.0733,0.0818,0.0864,0.0902,0.0907,0.0886,0.0748,0.0599,0.0378,0.0179,-0.0004,-0.0144,-0.0202,-0.0201,-0.0196,-0.0176,-0.0195,-0.0188,-0.025,-0.025,-0.0249,-0.0249,0,0.0409,0.045,0.0526,0.0619,0.0717,0.0811,0.0853,0.0912,0.0961,0.0971,0.0958,0.0787,0.0692,0.0416,0.0231,0.0049,0.0001,-0.0054,-0.0062,-0.0061,0.0013,0.0066,0.0044,0,0,0,0,0,0.0434,0.0483,0.0568,0.067,0.0766,0.083,0.0931,0.0962,0.1001,0.1001,0.0989,0.0847,0.0577,0.0455,0.0273,0.0195,-0.0046,-0.0026,-0.0117,-0.0266,-0.0262,-0.0207,0,0,0,0,0,0,0.0452,0.0529,0.0569,0.0698,0.0772,0.0884,0.0953,0.098,0.0987,0.0992,0.0853,0.0795,0.0529,0.0678,0.0266,0.0209,0.0126,-0.0151,-0.0155,-0.0267,-0.0264,-0.0262,-0.0203,0,0,0,0,0]}]]